Flag Weather past 2 weeks in Recife, Pernambuco, Brazil

Now
82 °F

Scattered clouds.


Feels Like: 88 °F
Forecast: 73 / 84 °F
Wind: 9 mph from South

Location: Recife Aeroporto

Current Time: Nov 28, 2014 at 3:12:26 PM

Latest Report: Nov 28, 2014 at 2:00 PM


Visibility: N/A

Pressure: 29.89 "Hg

Humidity: 74%

Dew point: 73 °F

Location of RecifeLocation

Historic Weather in Recife — Graph

°F

Recife temperature yesterday

Maximum temperature yesterday: 84 °F (at 12:00 PM)
Minimum temperature yesterday: 75 °F (at 4:00 AM)
Average temperature yesterday: 79 °F

Past Weeks' High & Low Weather Summary

 TemperatureHumidityPressure
High86 °F (Nov 13, 2:00 PM)94% (Nov 17, 3:00 AM)30.01 "Hg (Nov 17, 3:00 AM)
Low73 °F (Nov 28, 4:00 AM)58% (Nov 26, 3:00 PM)29.80 "Hg (Nov 16, 3:00 PM)
Average81 °F76%29.91 "Hg
* Reported Nov 13 2:00 PM — Nov 28 2:00 PM, Recife, Weather by CustomWeather, © 2014

Note: Actual official high and low records may vary slightly from our data, if they occured in-between our weather recording intervals... More about our weather records

Advertising

Recife weather history for previous 24 hours

 ConditionsComfort  
Time TempWeatherWind HumidityBarometerVisibility
2:00 PM
Nov 28
82 °FScattered clouds.9 mph74%29.89 "HgN/A
1:00 PM82 °FBroken clouds.8 mph70%29.92 "HgN/A
12:00 PM81 °FScattered showers. Partly sunny.8 mph79%29.92 "HgN/A
11:00 AM75 °FLight rain. Partly sunny.7 mph94%29.95 "Hg3 mi
10:00 AM79 °FScattered showers. Broken clouds.6 mph89%N/AN/A
9:00 AM75 °FLight rain. Fog.6 mph94%N/A2 mi
8:00 AM79 °FScattered showers. Broken clouds.7 mph79%29.95 "HgN/A
7:00 AM75 °FScattered showers. Partly sunny.3 mph89%29.92 "HgN/A
6:00 AM75 °FPartly sunny.2 mph89%29.92 "HgN/A
5:00 AM73 °FPassing clouds.1 mph94%29.89 "HgN/A
4:00 AM73 °FPassing clouds.3 mph94%29.89 "HgN/A
3:00 AM79 °FPassing clouds.3 mph79%29.89 "HgN/A
2:00 AM77 °FPassing clouds.3 mph83%29.89 "HgN/A
1:00 AM77 °FPassing clouds.2 mph83%29.89 "HgN/A
12:00 AM79 °FPassing clouds.2 mph79%29.92 "HgN/A
11:00 PM
Nov 27
79 °FPassing clouds.6 mph79%29.95 "HgN/A
10:00 PM79 °FPassing clouds.2 mph84%29.95 "HgN/A
9:00 PM79 °FPassing clouds.6 mph79%29.95 "HgN/A
8:00 PM79 °FPassing clouds.5 mph79%29.95 "HgN/A
7:00 PM79 °FPassing clouds.6 mph79%29.95 "HgN/A
6:00 PM81 °FPartly sunny.7 mph74%29.92 "HgN/A
5:00 PM81 °FPartly sunny.8 mph74%29.92 "HgN/A
4:00 PM82 °FScattered clouds.9 mph70%29.92 "HgN/A
3:00 PM82 °FScattered clouds.8 mph70%29.89 "HgN/A
Weather by CustomWeather, © 2014

See weather overviewHow to use our weather pages